Time,TemperatureF,DewpointF,PressureIn,WindDirection,WindDirectionDegrees,WindSpeedMPH,WindSpeedGustMPH,Humidity,HourlyPrecipIn,Conditions,Clouds,dailyrainin,SolarRadiationWatts/m^2,SoftwareType,DateUTC
2013-09-17 00:02:00,55.0,45.0,-100.00,ESE,110,1.0,2.0,70,0.00,,,0.02,7.000000,,2013-09-17 06:02:00,
2013-09-17 00:42:00,52.0,47.0,-100.00,South,171,1.0,2.0,82,0.00,,,0.02,4.000000,,2013-09-17 06:42:00,
2013-09-17 00:52:00,52.0,47.0,-100.00,South,171,1.0,2.0,82,0.00,,,0.02,4.000000,,2013-09-17 06:52:00,
2013-09-17 01:02:00,52.0,47.0,-100.00,South,171,1.0,2.0,82,0.00,,,0.02,4.000000,,2013-09-17 07:02:00,
2013-09-17 01:11:00,52.0,47.0,-100.00,South,171,1.0,2.0,82,0.00,,,0.02,4.000000,,2013-09-17 07:11:00,
2013-09-17 01:12:00,50.0,47.0,-100.00,SSW,211,1.0,3.0,89,0.00,,,0.02,7.000000,,2013-09-17 07:12:00,
2013-09-17 01:43:00,50.0,47.0,-100.00,SSW,211,1.0,3.0,89,0.00,,,0.02,7.000000,,2013-09-17 07:43:00,
2013-09-17 01:52:00,50.0,47.0,-100.00,SSW,211,1.0,3.0,89,0.00,,,0.02,7.000000,,2013-09-17 07:52:00,
2013-09-17 02:02:00,50.0,47.0,-100.00,SSW,211,1.0,3.0,89,0.00,,,0.02,7.000000,,2013-09-17 08:02:00,
2013-09-17 03:12:00,47.0,45.0,-100.00,South,189,0.0,2.0,93,-99.99,,,0.02,0.000000,,2013-09-17 09:12:00,
2013-09-17 03:43:00,47.0,45.0,-100.00,South,189,0.0,2.0,93,-99.99,,,0.02,0.000000,,2013-09-17 09:43:00,
2013-09-17 03:53:00,47.0,45.0,-100.00,South,189,0.0,2.0,93,-99.99,,,0.02,0.000000,,2013-09-17 09:53:00,
2013-09-17 04:03:00,47.0,45.0,-100.00,South,189,0.0,2.0,93,-99.99,,,0.02,0.000000,,2013-09-17 10:03:00,
2013-09-17 04:42:00,46.0,45.0,-100.00,South,179,0.0,2.0,95,0.00,,,0.02,4.000000,,2013-09-17 10:42:00,
2013-09-17 04:53:00,46.0,45.0,-100.00,South,179,0.0,2.0,95,0.00,,,0.02,4.000000,,2013-09-17 10:53:00,
2013-09-17 05:03:00,46.0,45.0,-100.00,South,179,0.0,2.0,95,0.00,,,0.02,4.000000,,2013-09-17 11:03:00,
2013-09-17 05:11:00,46.0,45.0,-100.00,South,179,0.0,2.0,95,0.00,,,0.02,4.000000,,2013-09-17 11:11:00,
2013-09-17 05:12:00,45.0,44.0,-100.00,SSW,201,1.0,2.0,97,0.00,,,0.02,2.000000,,2013-09-17 11:12:00,
2013-09-17 05:43:00,45.0,44.0,-100.00,SSW,201,1.0,2.0,97,0.00,,,0.02,2.000000,,2013-09-17 11:43:00,
2013-09-17 05:52:00,45.0,44.0,-100.00,SSW,201,1.0,2.0,97,0.00,,,0.02,2.000000,,2013-09-17 11:52:00,
2013-09-17 06:02:00,45.0,44.0,-100.00,SSW,201,1.0,2.0,97,0.00,,,0.02,2.000000,,2013-09-17 12:02:00,
2013-09-17 06:42:00,43.0,42.0,-100.00,WSW,240,0.0,2.0,97,0.00,,,0.02,3.000000,,2013-09-17 12:42:00,
2013-09-17 06:52:00,43.0,42.0,-100.00,WSW,240,0.0,2.0,97,0.00,,,0.02,3.000000,,2013-09-17 12:52:00,
2013-09-17 07:02:00,43.0,42.0,-100.00,WSW,240,0.0,2.0,97,0.00,,,0.02,3.000000,,2013-09-17 13:02:00,
2013-09-17 07:11:00,43.0,42.0,-100.00,WSW,240,0.0,2.0,97,0.00,,,0.02,3.000000,,2013-09-17 13:11:00,
2013-09-17 08:42:00,42.0,41.0,-100.00,SSE,158,1.0,2.0,98,-99.99,,,0.02,13.000000,,2013-09-17 14:42:00,
2013-09-17 08:52:00,42.0,41.0,-100.00,SSE,158,1.0,2.0,98,-99.99,,,0.02,13.000000,,2013-09-17 14:52:00,
2013-09-17 09:02:00,42.0,41.0,-100.00,SSE,158,1.0,2.0,98,-99.99,,,0.02,13.000000,,2013-09-17 15:02:00,
2013-09-17 09:11:00,42.0,41.0,-100.00,SSE,158,1.0,2.0,98,-99.99,,,0.02,13.000000,,2013-09-17 15:11:00,
2013-09-17 09:12:00,47.0,46.0,-100.00,SE,126,2.0,3.0,98,0.00,,,0.01,86.000000,,2013-09-17 15:12:00,
2013-09-17 09:44:00,47.0,46.0,-100.00,SE,126,2.0,3.0,98,0.00,,,0.01,86.000000,,2013-09-17 15:44:00,
2013-09-17 09:53:00,47.0,46.0,-100.00,SE,126,2.0,3.0,98,0.00,,,0.01,86.000000,,2013-09-17 15:53:00,
2013-09-17 10:03:00,47.0,46.0,-100.00,SE,126,2.0,3.0,98,0.00,,,0.01,86.000000,,2013-09-17 16:03:00,
2013-09-17 10:12:00,60.0,50.0,-100.00,ENE,77,1.0,3.0,69,-99.99,,,0.00,418.000000,,2013-09-17 16:12:00,
2013-09-17 10:42:00,60.0,50.0,-100.00,ENE,77,1.0,3.0,69,-99.99,,,0.00,418.000000,,2013-09-17 16:42:00,
2013-09-17 10:54:00,60.0,50.0,-100.00,ENE,77,1.0,3.0,69,-99.99,,,0.00,418.000000,,2013-09-17 16:54:00,
2013-09-17 11:03:00,60.0,50.0,-100.00,ENE,77,1.0,3.0,69,-99.99,,,0.00,418.000000,,2013-09-17 17:03:00,
2013-09-17 11:12:00,65.0,48.0,-100.00,South,179,2.0,4.0,55,0.00,,,0.00,521.000000,,2013-09-17 17:12:00,
2013-09-17 11:43:00,65.0,48.0,-100.00,South,179,2.0,4.0,55,0.00,,,0.00,521.000000,,2013-09-17 17:43:00,
2013-09-17 11:53:00,65.0,48.0,-100.00,South,179,2.0,4.0,55,0.00,,,0.00,521.000000,,2013-09-17 17:53:00,
2013-09-17 12:02:00,65.0,48.0,-100.00,South,179,2.0,4.0,55,0.00,,,0.00,521.000000,,2013-09-17 18:02:00,
2013-09-17 12:42:00,65.0,48.0,-100.00,West,261,2.0,4.0,54,0.00,,,0.00,346.000000,,2013-09-17 18:42:00,
2013-09-17 12:52:00,65.0,48.0,-100.00,West,261,2.0,4.0,54,0.00,,,0.00,346.000000,,2013-09-17 18:52:00,
2013-09-17 13:02:00,65.0,48.0,-100.00,West,261,2.0,4.0,54,0.00,,,0.00,346.000000,,2013-09-17 19:02:00,
2013-09-17 13:11:00,65.0,48.0,-100.00,West,261,2.0,4.0,54,0.00,,,0.00,346.000000,,2013-09-17 19:11:00,
2013-09-17 13:42:00,67.0,46.0,-100.00,SW,223,3.0,4.0,47,0.00,,,0.00,455.000000,,2013-09-17 19:42:00,
2013-09-17 13:52:00,67.0,46.0,-100.00,SW,223,3.0,4.0,47,0.00,,,0.00,455.000000,,2013-09-17 19:52:00,
2013-09-17 14:02:00,67.0,46.0,-100.00,SW,223,3.0,4.0,47,0.00,,,0.00,455.000000,,2013-09-17 20:02:00,
2013-09-17 14:11:00,67.0,46.0,-100.00,SW,223,3.0,4.0,47,0.00,,,0.00,455.000000,,2013-09-17 20:11:00,
2013-09-17 14:12:00,69.0,43.0,-100.00,SW,226,3.0,5.0,39,0.00,,,0.00,496.000000,,2013-09-17 20:12:00,
2013-09-17 14:42:00,69.0,43.0,-100.00,SW,226,3.0,5.0,39,0.00,,,0.00,496.000000,,2013-09-17 20:42:00,
2013-09-17 14:52:00,69.0,43.0,-100.00,SW,226,3.0,5.0,39,0.00,,,0.00,496.000000,,2013-09-17 20:52:00,
2013-09-17 15:01:00,69.0,43.0,-100.00,SW,226,3.0,5.0,39,0.00,,,0.00,496.000000,,2013-09-17 21:01:00,
2013-09-17 15:12:00,70.0,43.0,-100.00,WSW,248,3.0,6.0,37,0.00,,,0.00,470.000000,,2013-09-17 21:12:00,
2013-09-17 15:44:00,70.0,43.0,-100.00,WSW,248,3.0,6.0,37,0.00,,,0.00,470.000000,,2013-09-17 21:44:00,
2013-09-17 15:54:00,70.0,43.0,-100.00,WSW,248,3.0,6.0,37,0.00,,,0.00,470.000000,,2013-09-17 21:54:00,
2013-09-17 16:04:00,70.0,43.0,-100.00,WSW,248,3.0,6.0,37,0.00,,,0.00,470.000000,,2013-09-17 22:04:00,
2013-09-17 16:12:00,72.0,41.0,-100.00,WNW,293,3.0,6.0,32,0.00,,,0.00,600.000000,,2013-09-17 22:12:00,
2013-09-17 16:44:00,72.0,41.0,-100.00,WNW,293,3.0,6.0,32,0.00,,,0.00,600.000000,,2013-09-17 22:44:00,
2013-09-17 16:53:00,72.0,41.0,-100.00,WNW,293,3.0,6.0,32,0.00,,,0.00,600.000000,,2013-09-17 22:53:00,
2013-09-17 17:03:00,72.0,41.0,-100.00,WNW,293,3.0,6.0,32,0.00,,,0.00,600.000000,,2013-09-17 23:03:00,
2013-09-17 17:42:00,73.0,41.0,-100.00,West,262,3.0,5.0,31,0.00,,,0.00,490.000000,,2013-09-17 23:42:00,
2013-09-17 17:52:00,73.0,41.0,-100.00,West,262,3.0,5.0,31,0.00,,,0.00,490.000000,,2013-09-17 23:52:00,
2013-09-17 18:02:00,73.0,41.0,-100.00,West,262,3.0,5.0,31,0.00,,,0.00,490.000000,,2013-09-18 00:02:00,
2013-09-17 18:11:00,73.0,41.0,-100.00,West,262,3.0,5.0,31,0.00,,,0.00,490.000000,,2013-09-18 00:11:00,
2013-09-17 18:42:00,70.0,40.0,-100.00,NNW,347,1.0,4.0,33,0.00,,,0.00,149.000000,,2013-09-18 00:42:00,
2013-09-17 18:52:00,70.0,40.0,-100.00,NNW,347,1.0,4.0,33,0.00,,,0.00,149.000000,,2013-09-18 00:52:00,
2013-09-17 19:01:00,70.0,40.0,-100.00,NNW,347,1.0,4.0,33,0.00,,,0.00,149.000000,,2013-09-18 01:01:00,
2013-09-17 19:11:00,70.0,40.0,-100.00,NNW,347,1.0,4.0,33,0.00,,,0.00,149.000000,,2013-09-18 01:11:00,
2013-09-17 19:52:00,61.0,48.0,-100.00,North,353,0.0,3.0,63,0.00,,,0.00,107.000000,,2013-09-18 01:52:00,
2013-09-17 20:03:00,61.0,48.0,-100.00,North,353,0.0,3.0,63,0.00,,,0.00,107.000000,,2013-09-18 02:03:00,
2013-09-17 20:43:00,55.0,45.0,-100.00,NNW,328,0.0,2.0,68,0.00,,,0.00,10.000000,,2013-09-18 02:43:00,
2013-09-17 20:52:00,55.0,45.0,-100.00,NNW,328,0.0,2.0,68,0.00,,,0.00,10.000000,,2013-09-18 02:52:00,
2013-09-17 21:02:00,55.0,45.0,-100.00,NNW,328,0.0,2.0,68,0.00,,,0.00,10.000000,,2013-09-18 03:02:00,
2013-09-17 21:11:00,55.0,45.0,-100.00,NNW,328,0.0,2.0,68,0.00,,,0.00,10.000000,,2013-09-18 03:11:00,
2013-09-17 21:12:00,53.0,47.0,-100.00,West,270,0.0,3.0,80,0.00,,,0.00,0.000000,,2013-09-18 03:12:00,
2013-09-17 21:44:00,53.0,47.0,-100.00,West,270,0.0,3.0,80,0.00,,,0.00,0.000000,,2013-09-18 03:44:00,
2013-09-17 21:55:00,53.0,47.0,-100.00,West,270,0.0,3.0,80,0.00,,,0.00,0.000000,,2013-09-18 03:55:00,
2013-09-17 22:04:00,53.0,47.0,-100.00,West,270,0.0,3.0,80,0.00,,,0.00,0.000000,,2013-09-18 04:04:00,
2013-09-17 22:12:00,53.0,47.0,-100.00,SSW,202,1.0,4.0,79,0.00,,,0.00,0.000000,,2013-09-18 04:12:00,
2013-09-17 22:44:00,53.0,47.0,-100.00,SSW,202,1.0,4.0,79,0.00,,,0.00,0.000000,,2013-09-18 04:44:00,
2013-09-17 22:54:00,53.0,47.0,-100.00,SSW,202,1.0,4.0,79,0.00,,,0.00,0.000000,,2013-09-18 04:54:00,
2013-09-17 23:04:00,53.0,47.0,-100.00,SSW,202,1.0,4.0,79,0.00,,,0.00,0.000000,,2013-09-18 05:04:00,
2013-09-17 23:12:00,53.0,51.0,-100.00,SSE,147,2.0,15.0,94,0.07,,,0.07,0.000000,,2013-09-18 05:12:00,
2013-09-17 23:43:00,53.0,51.0,-100.00,SSE,147,2.0,15.0,94,0.07,,,0.07,0.000000,,2013-09-18 05:43:00,
2013-09-17 23:53:00,53.0,51.0,-100.00,SSE,147,2.0,15.0,94,0.07,,,0.07,0.000000,,2013-09-18 05:53:00,